Davenport, IA

6:20 AM CST on November 20, 2019 (GMT -0600)
Davenport Municipal

Weather History for KDVN - September, 2019

Change the Weather History Date:

Thursday, September 19, 2019

  Actual Average Record
Temperature  
Mean Temperature 73 °F 62 °F  
Max Temperature 76 °F 74 °F 93 °F (1948)
Min Temperature 69 °F 50 °F 40 °F (2012)
Degree Days  
Heating Degree Days 0 5  
Month to date heating degree days 5 48  
Since 1 July heating degree days 7 62  
Cooling Degree Days 8 2  
Month to date cooling degree days 121 56  
Year to date cooling degree days 961 760  
Growing Degree Days 22 (Base 50)    
Moisture  
Dew Point 65 °F    
Average Humidity 79    
Maximum Humidity 90    
Minimum Humidity 68    
Precipitation  
Precipitation 0.07 in 0.11 in 1.00 in (1968)
Month to date precipitation 2.30 1.85  
Year to date precipitation 34.33 27.67  
Snow  
Snow 0.00 in - - ()
Month to date snowfall 0.0  
Since 1 July snowfall 0.0  
Since 1 September snowfall 0.0  
Snow Depth 0.00 in    
Sea Level Pressure  
Sea Level Pressure 30.05 in    
Wind  
Wind Speed 8 mph (East)    
Max Wind Speed 18 mph    
Max Gust Speed 25 mph    
Visibility 9 miles    
Events Rain , Thunderstorm    
T = Trace of Precipitation, MM = Missing Value Source: NWS Daily Summary

Daily Weather History Graph

Daily Weather History Graph

Search for Another Location

Airport or City:

Astronomy

Sep. 19, 2019 Rise Set
Actual Time 6:46 AM CDT 7:05 PM CDT
Civil Twilight 6:18 AM CDT 7:32 PM CDT
Nautical Twilight 5:46 AM CDT 8:05 PM CDT
Astronomical Twilight 5:12 AM CDT 8:38 PM CDT
Moon 10:10 PM CDT (9/19) 11:53 AM CDT (9/19)
Length of Visible Light 13h 14m
Length of Day
12h 18m
Waning Gibbous, 74% of the Moon is Illuminated
Sep 19
Waning Gibbous
Sep 21
Last Quarter
Sep 28
New
Oct 5
First Quarter
Oct 13
Full

Hourly Weather History & Observations

Time (CDT) Temp. Dew Point Humidity Pressure Visibility Wind Dir Wind Speed Gust Speed Precip Events Conditions
12:52 AM 73.0 °F 64.0 °F 73% 30.02 in 10.0 mi SSE 8.1 mph - N/A   Clear
1:52 AM 73.0 °F 63.0 °F 71% 30.03 in 10.0 mi SSE 8.1 mph - N/A   Partly Cloudy
2:52 AM 72.0 °F 63.0 °F 73% 30.02 in 10.0 mi SSE 6.9 mph - N/A   Mostly Cloudy
3:52 AM 71.1 °F 62.1 °F 73% 30.00 in 10.0 mi SSE 6.9 mph - N/A   Partly Cloudy
4:52 AM 71.1 °F 62.1 °F 73% 30.00 in 10.0 mi SSE 8.1 mph - N/A   Clear
5:52 AM 71.1 °F 61.0 °F 70% 30.01 in 10.0 mi South 6.9 mph - N/A   Clear
6:52 AM 70.0 °F 61.0 °F 73% 30.03 in 10.0 mi South 4.6 mph - N/A   Clear
7:52 AM 72.0 °F 61.0 °F 68% 30.03 in 10.0 mi South 10.4 mph - N/A   Clear
8:52 AM 73.0 °F 62.1 °F 68% 30.04 in 10.0 mi South 6.9 mph - N/A   Clear
9:52 AM 73.9 °F 63.0 °F 68% 30.07 in 10.0 mi North - - N/A   Scattered Clouds
10:33 AM 72.0 °F 64.0 °F 76% 30.12 in 10.0 mi North 10.4 mph - N/A Thunderstorm Mostly Cloudy
10:52 AM 70.0 °F 64.0 °F 81% 30.10 in 10.0 mi NNE 12.7 mph - 0.00 in Rain Light Rain
11:52 AM 71.1 °F 66.0 °F 84% 30.09 in 10.0 mi NE 10.4 mph - 0.03 in Thunderstorm Mostly Cloudy
12:07 PM 70.0 °F 66.0 °F 87% 30.13 in 10.0 mi ENE 4.6 mph - N/A Thunderstorm Thunderstorm
12:22 PM 70.0 °F 66.0 °F 87% 30.11 in 3.0 mi ENE 10.4 mph - 0.04 in Rain Heavy Rain
12:32 PM 72.0 °F 68.0 °F 87% 30.10 in 9.0 mi ENE 10.4 mph - 0.04 in Rain , Thunderstorm Light Rain
12:47 PM 71.6 °F 68.0 °F 88% 30.10 in 10.0 mi NE 9.2 mph - 0.04 in   Partly Cloudy
12:52 PM 73.0 °F 68.0 °F 84% 30.08 in 10.0 mi NE 11.5 mph - 0.04 in   Partly Cloudy
1:52 PM 75.0 °F 66.0 °F 73% 30.06 in 10.0 mi ENE 10.4 mph - N/A   Partly Cloudy
2:52 PM 75.9 °F 66.0 °F 71% 30.03 in 10.0 mi East 13.8 mph - N/A   Clear
3:52 PM 75.9 °F 66.0 °F 71% 30.02 in 10.0 mi ESE 11.5 mph - N/A   Clear
4:52 PM 75.9 °F 66.9 °F 74% 30.01 in 10.0 mi SE 6.9 mph - N/A   Clear
5:52 PM 75.9 °F 68.0 °F 76% 30.00 in 10.0 mi SE 6.9 mph - N/A   Clear
6:52 PM 75.0 °F 68.0 °F 79% 30.01 in 10.0 mi East 3.5 mph - N/A   Scattered Clouds
7:52 PM 71.1 °F 68.0 °F 90% 30.02 in 8.0 mi NE 3.5 mph - N/A   Partly Cloudy
8:52 PM 71.1 °F 66.9 °F 87% 30.03 in 8.0 mi NE 5.8 mph - N/A   Clear
9:52 PM 70.0 °F 66.9 °F 90% 30.04 in 6.0 mi NE 4.6 mph - N/A   Clear
10:52 PM 70.0 °F 66.9 °F 90% 30.04 in 6.0 mi ENE 5.8 mph - N/A   Clear
11:52 PM 69.1 °F 66.9 °F 93% 30.04 in 5.0 mi East 5.8 mph - N/A   Clear